[[{"header":{"parameterUnit":"m.s-1","parameterCategory":1,"la1":30.2991,"la2":30.254,"lo1":-89.0895,"lo2":-89.0444,"dy":0.0017,"dx":0.0017,"nx":28,"ny":28,"refTime":"2025-11-08T09:00:00:Z","depth":0,"parameterNumber":2,"parameterNumberName":"U-component_of_WINDS"},"data":[0,0,0,0,0,0,0,0,0,0,0,0,0,0,0,0,0,0,0,0,0,0,0,0,0,0,0,0,0,0,0,0,0,0,0,0,0,0,0,0,0,0,0,0,0,0,0,0,0,0,0,0,0,0,0,0,0,0,3.9589,3.9591,0,3.972,3.9721,3.9723,3.9678,3.9675,3.9672,3.9669,3.9806,3.9812,3.9819,0,0,0,0,0,0,0,0,0,0,0,0,0,3.9305,3.931,3.9589,3.9591,3.9592,3.972,3.9721,3.9723,3.9678,3.9675,3.9671,3.9668,3.9804,3.9812,3.9819,0,0,0,0,0,0,0,0,0,0,0,0,0,3.9431,3.9312,3.9589,3.9585,3.9586,3.9719,3.9721,3.9724,3.9679,3.9674,3.967,3.9666,3.9802,3.9811,3.982,3.9966,0,0,3.9849,3.9853,0,0,0,0,0,0,0,0,3.9424,3.9442,3.9584,3.9586,3.9587,3.9678,3.9671,3.9805,3.968,3.9644,3.9669,3.9664,3.9767,3.9779,3.9813,3.9972,3.9978,3.985,3.9856,3.986,3.9863,0,0,0,0,0,0,0,3.9415,3.9436,3.9641,3.9586,3.9588,3.9578,3.9591,3.9696,3.9728,3.9647,3.9644,3.966,3.9767,3.9804,3.9816,3.998,3.985,3.9858,3.9864,3.9868,4.0266,4.0271,0,0,0,0,0,0,3.9405,3.9429,3.9637,3.9645,3.9493,3.9587,3.9602,3.9653,3.9727,3.9734,3.9663,3.9657,3.979,3.9805,3.9821,3.9997,3.986,3.9869,3.9874,4.0262,4.0268,4.0273,0,0,0,0,0,0,3.9399,3.9424,3.9632,3.9536,3.9562,3.9596,3.9655,3.9658,3.9695,3.9739,3.9745,3.9695,3.9787,3.9808,3.993,4.0001,3.9873,3.9882,4.0256,4.0263,4.027,4.0349,0,0,0,0,0,0,3.9391,3.9422,3.9477,3.9538,3.9567,3.9738,3.9659,3.9664,3.9711,3.9704,3.9771,3.9778,3.9786,3.9916,3.994,4.0012,3.9889,4.025,4.0259,4.0268,4.034,4.0358,4.0374,0,0,0,0,0,3.9381,3.9494,3.948,3.9505,3.9636,3.9742,3.9759,3.9764,3.9717,3.9773,3.9802,3.9776,3.999,3.9929,3.9955,4.0031,4.0245,4.0257,4.0267,4.0333,4.0355,4.0373,0,0,0,0,0,0,3.9442,3.9502,3.9487,3.9623,3.9677,3.9734,3.9804,3.9787,3.9857,3.9848,3.9853,3.9868,3.9995,4.0025,3.9957,4.0177,4.0111,4.0127,4.0152,4.0173,4.0189,4.0179,3.9897,0,0,0,0,0,3.9471,3.9551,3.96,3.9715,3.9743,3.9769,3.9815,3.9815,3.9872,3.9896,3.9933,3.9991,4.0071,4.0124,4.02,4.0345,4.0359,4.041,4.0427,4.044,4.0455,4.0535,4.0558,4.0309,4.0309,4.0309,0,0,3.9532,3.9575,3.9625,3.9728,3.977,3.9854,3.9789,3.988,3.9942,3.991,4.0027,4.0058,4.0122,4.0257,4.0318,4.0286,4.0527,4.0454,4.0465,4.0472,4.0548,4.0572,4.0593,4.0316,4.0315,4.0314,0,0,3.9685,3.9725,3.9826,3.987,3.9935,3.9952,3.9976,4.0036,4.0054,4.0172,4.015,4.0225,4.0363,4.041,4.0453,4.0626,4.0605,4.0651,4.0738,4.0816,4.0835,4.0853,4.0915,4.0937,4.0665,4.0666,4.0666,0,3.9753,3.9877,3.988,3.9974,4.002,3.9994,4.0097,4.014,4.0227,4.026,4.0223,4.0396,4.0438,4.0584,4.0626,4.0661,4.069,4.0643,4.0832,4.0849,4.0866,4.0925,4.0949,4.0671,4.067,4.067,4.0669,0,3.9957,4.0044,4.0118,4.0201,4.0257,4.0354,4.0374,4.043,4.0426,4.0447,4.0569,4.0618,4.0704,4.0739,4.0736,4.0885,4.0864,4.083,4.0763,4.0895,4.095,4.0973,4.0678,4.0676,4.0675,4.0673,0,0,4.015,4.0236,4.0263,4.0301,4.0372,4.044,4.0537,4.0621,4.0669,4.073,4.0813,4.0931,4.09,4.0948,4.095,4.1019,4.1154,4.0977,4.0978,4.1008,4.1322,4.1347,4.1373,4.1141,4.1145,4.1149,4.1317,0,4.031,4.0479,4.0486,4.0641,4.0722,4.07,4.0785,4.0838,4.0862,4.0935,4.0961,4.1044,4.0997,4.1026,4.1093,4.1123,4.1217,4.1111,4.1218,4.1222,4.1202,4.1402,4.1429,4.1585,4.1339,4.1342,4.1345,0,4.0517,4.0585,4.0748,4.0808,4.0842,4.0918,4.0996,4.1066,4.1127,4.1139,4.1194,4.1186,4.1288,4.1219,4.1359,4.1287,4.1331,4.1353,4.136,4.1369,4.1291,4.1417,4.1634,4.1658,4.138,4.1377,4.1374,0,4.0642,4.0774,4.0889,4.0922,4.0995,4.105,4.1083,4.1139,4.1189,4.1258,4.1291,4.1371,4.1415,4.1478,4.1493,4.1441,4.1634,4.1566,4.1647,4.1647,4.1688,4.1685,4.1915,4.1718,4.1718,4.1717,4.1717,0,4.0818,4.0919,4.0946,4.1016,4.1129,4.1137,4.1249,4.1279,4.133,4.1407,4.1393,4.1466,4.1482,4.1558,4.1571,4.1686,4.1706,4.1719,4.1721,4.172,4.1719,4.1749,4.1738,4.1723,4.1722,4.1721,4.172,0,4.0976,4.0998,4.1122,4.1181,4.1198,4.1279,4.133,4.1399,4.1421,4.1519,4.1542,4.1577,4.1667,4.1689,4.1796,4.1804,4.194,4.1932,4.1919,4.1918,4.1998,4.199,4.2255,4.2291,4.2071,4.2073,4.2075,0,4.1087,4.1164,4.1232,4.1282,4.1317,4.1398,4.145,4.1462,4.1516,4.1592,4.1652,4.174,4.181,4.1955,4.199,4.2073,4.2066,4.2154,4.2078,4.2075,4.2067,4.2062,4.207,4.2167,4.217,4.2172,4.2173,0,4.1281,4.1288,4.1362,4.1441,4.1502,4.1565,4.1625,4.1667,4.1687,4.1749,4.184,4.1895,4.2005,4.2092,4.2175,4.2211,4.2196,4.2197,4.222,4.2219,4.2208,4.2215,4.1957,4.219,4.2189,4.2187,4.2187,4.2186,4.1418,4.1486,4.1544,4.1628,4.1674,4.1731,4.1798,4.1829,4.1905,4.1994,4.1997,4.2096,4.2157,4.2267,4.2307,4.2386,4.2359,4.2393,4.2401,4.2409,4.2416,4.2197,4.2401,4.2401,4.24,4.24,4.24,0,4.1611,4.1648,4.1725,4.1809,4.1875,4.1855,4.1921,4.1978,4.2065,4.2122,4.2192,4.2298,4.2383,4.2426,4.2512,4.2566,4.2562,4.2588,4.2584,4.2593,4.2435,4.2407,4.2591,4.2591,4.259,4.259,4.259,4.259,4.1719,4.1833,4.1848,4.1985,4.2021,4.2118,4.2157,4.221,4.2256,4.2374,4.2445,4.2472,4.2524,4.2613,4.2691,4.2702,4.2734,4.2764,4.2771,4.2623,4.2604,4.2585,4.2558,4.2771,4.2771,4.2922,4.2923,4.2924]},{"header":{"parameterUnit":"m.s-1","parameterCategory":1,"la1":30.2991,"la2":30.254,"lo1":-89.0895,"lo2":-89.0444,"dy":0.0017,"dx":0.0017,"nx":28,"ny":28,"refTime":"2025-11-08T09:00:00:Z","depth":0,"parameterNumber":3,"parameterNumberName":"V-component_of_WINDS"},"data":[0,0,0,0,0,0,0,0,0,0,0,0,0,0,0,0,0,0,0,0,0,0,0,0,0,0,0,0,0,0,0,0,0,0,0,0,0,0,0,0,0,0,0,0,0,0,0,0,0,0,0,0,0,0,0,0,0,0,1.4959,1.496,0,1.5036,1.5036,1.5037,1.5051,1.5051,1.505,1.505,1.5127,1.513,1.5132,0,0,0,0,0,0,0,0,0,0,0,0,0,1.4823,1.4826,1.4959,1.496,1.4961,1.5035,1.5036,1.5037,1.5052,1.5051,1.505,1.5049,1.5126,1.513,1.5133,0,0,0,0,0,0,0,0,0,0,0,0,0,1.4889,1.4826,1.4959,1.4977,1.4979,1.5035,1.5036,1.5038,1.5052,1.5051,1.505,1.5049,1.5125,1.5129,1.5133,1.5176,0,0,1.5145,1.5147,0,0,0,0,0,0,0,0,1.4885,1.4894,1.4973,1.4976,1.4978,1.5033,1.5017,1.5084,1.5052,1.5024,1.505,1.5048,1.5097,1.5103,1.5119,1.518,1.5183,1.5146,1.5148,1.515,1.5151,0,0,0,0,0,0,0,1.4881,1.4891,1.4989,1.4974,1.4977,1.4981,1.4989,1.503,1.5065,1.5026,1.5028,1.5037,1.5098,1.5115,1.5121,1.5184,1.5146,1.5149,1.5151,1.5153,1.5284,1.5285,0,0,0,0,0,0,1.4873,1.4887,1.4987,1.4991,1.4929,1.4984,1.4993,1.5016,1.5064,1.5071,1.5037,1.5037,1.5109,1.5117,1.5124,1.5178,1.515,1.5153,1.5156,1.5283,1.5284,1.5285,0,0,0,0,0,0,1.487,1.4882,1.4984,1.494,1.4953,1.4987,1.5013,1.5018,1.5036,1.5072,1.5079,1.5049,1.5109,1.5118,1.5163,1.5181,1.5155,1.5159,1.5281,1.5283,1.5285,1.5285,0,0,0,0,0,0,1.4866,1.4881,1.4898,1.494,1.4955,1.5022,1.5014,1.5021,1.5043,1.5043,1.5085,1.5091,1.5109,1.5157,1.5167,1.5186,1.5162,1.528,1.5282,1.5284,1.5284,1.5287,1.5289,0,0,0,0,0,1.4861,1.4895,1.4899,1.4911,1.4977,1.5023,1.5032,1.5051,1.5044,1.5062,1.5085,1.509,1.5177,1.5162,1.5173,1.5193,1.5279,1.5282,1.5284,1.5283,1.5286,1.5289,0,0,0,0,0,0,1.4854,1.4901,1.4906,1.4954,1.4984,1.5025,1.5048,1.5055,1.5088,1.5086,1.5109,1.5119,1.5162,1.5182,1.5164,1.5237,1.5227,1.5232,1.5223,1.5226,1.5229,1.5223,1.5165,0,0,0,0,0,1.4858,1.4892,1.4931,1.4969,1.4984,1.5013,1.5034,1.5047,1.5079,1.5092,1.5118,1.5149,1.5184,1.5206,1.524,1.5286,1.5296,1.5306,1.5308,1.531,1.5314,1.534,1.5345,1.5293,1.5293,1.5293,0,0,1.4867,1.4897,1.4916,1.4969,1.4994,1.5028,1.5024,1.506,1.5086,1.5097,1.5142,1.5162,1.5198,1.5244,1.5265,1.5262,1.5331,1.5313,1.5315,1.5318,1.5343,1.5348,1.5353,1.5295,1.5295,1.5294,0,0,1.49,1.4926,1.4961,1.4986,1.5024,1.5043,1.5052,1.5092,1.5106,1.515,1.516,1.5189,1.5248,1.5273,1.5294,1.5336,1.5341,1.5346,1.536,1.5385,1.5389,1.5393,1.5408,1.5413,1.535,1.535,1.535,0,1.4906,1.4958,1.4978,1.5014,1.5037,1.5049,1.5084,1.5108,1.5154,1.517,1.5165,1.5238,1.5263,1.5315,1.5325,1.5341,1.5351,1.5342,1.5387,1.5391,1.5395,1.5409,1.5415,1.535,1.535,1.535,1.535,0,1.4964,1.5,1.5023,1.5069,1.5094,1.5129,1.5154,1.5177,1.5187,1.5206,1.5251,1.5281,1.5321,1.5334,1.5344,1.5387,1.5384,1.5382,1.5374,1.54,1.5414,1.542,1.535,1.535,1.535,1.535,0,0,1.4996,1.5051,1.506,1.508,1.5123,1.515,1.5186,1.5225,1.5244,1.5276,1.5306,1.5355,1.5354,1.5377,1.539,1.5412,1.5443,1.5408,1.5409,1.5414,1.5492,1.5493,1.5499,1.5446,1.5447,1.5448,1.5489,0,1.5035,1.5099,1.5118,1.5172,1.5205,1.5216,1.5247,1.5276,1.5295,1.5325,1.5345,1.538,1.5376,1.539,1.5412,1.5434,1.5459,1.5432,1.5475,1.5476,1.5466,1.5507,1.5508,1.5545,1.5495,1.5496,1.5496,0,1.5089,1.5122,1.5179,1.5217,1.5231,1.5259,1.5296,1.5325,1.5358,1.5369,1.5395,1.5406,1.5442,1.5431,1.5482,1.5463,1.5481,1.5494,1.5496,1.5502,1.5488,1.5513,1.5557,1.5563,1.5505,1.5505,1.5504,0,1.5107,1.5165,1.5207,1.5224,1.5269,1.5288,1.5308,1.534,1.5362,1.5394,1.5408,1.5444,1.5464,1.5491,1.5511,1.55,1.556,1.555,1.557,1.557,1.5583,1.5582,1.5631,1.5594,1.5594,1.5594,1.5594,0,1.5149,1.5183,1.5216,1.5242,1.5281,1.5301,1.5339,1.5359,1.5387,1.5417,1.5428,1.5455,1.548,1.551,1.5525,1.5565,1.5574,1.5584,1.5588,1.5584,1.5582,1.5597,1.5595,1.5595,1.5595,1.5595,1.5595,0,1.5176,1.5199,1.5245,1.5284,1.5294,1.5321,1.5354,1.5379,1.5398,1.5435,1.5445,1.5474,1.551,1.5532,1.5578,1.5588,1.5632,1.5635,1.5622,1.5623,1.5643,1.5641,1.5704,1.5713,1.5669,1.5669,1.567,0,1.5201,1.5228,1.527,1.529,1.531,1.5343,1.5366,1.5387,1.541,1.5449,1.5469,1.5506,1.5537,1.5594,1.5619,1.5654,1.5658,1.5677,1.5663,1.5658,1.5658,1.5657,1.5659,1.568,1.568,1.568,1.5681,0,1.5244,1.5254,1.5286,1.5322,1.5349,1.5379,1.5408,1.5424,1.545,1.5475,1.5512,1.5536,1.5583,1.5619,1.5656,1.5676,1.5682,1.5685,1.5691,1.5687,1.5679,1.5684,1.5628,1.5683,1.5683,1.5683,1.5683,1.5683,1.5271,1.5296,1.5329,1.5364,1.5388,1.5415,1.5441,1.5462,1.5494,1.5534,1.5544,1.5583,1.5614,1.5665,1.5685,1.5716,1.5713,1.5722,1.5725,1.5727,1.5728,1.5673,1.5722,1.5722,1.5722,1.5722,1.5722,0,1.5315,1.5336,1.5369,1.5409,1.5437,1.5441,1.5473,1.5496,1.5531,1.5559,1.5589,1.5632,1.5667,1.5695,1.5731,1.575,1.5754,1.5758,1.5757,1.5762,1.5728,1.5719,1.5755,1.5755,1.5755,1.5755,1.5755,1.5755,1.5341,1.5382,1.5396,1.5449,1.547,1.5509,1.5527,1.5552,1.5575,1.5622,1.5652,1.5669,1.5698,1.5736,1.5768,1.5775,1.5788,1.5792,1.58,1.5768,1.5764,1.5761,1.5752,1.5795,1.5795,1.5831,1.5831,1.5831]}]]